Weather in Dinamo

Russia / Volgograd Oblast     50°14′42″N   41°39′14″E
temp.,
°C
wind,
m/s
gust,
m/s
humid.,
%
clouds,
%
prec.,
mm/h
press.,
hPa
HPBL,
m
25 february, thu
thu2500:00−15ssw368196 0.0 1039271
03:00−14ssw598298 0.0 1037328
06:00−13ssw61093100 0.3 1034388
09:00−12sw7118699 0.3 1032407
12:00−9sw81391100 0.1 1030456
15:00−6wsw81393100 0.9 1026536
18:00−4wsw91592100 0.1 1023432
21:00−2wsw101694100 0.5 1020381
26 february, fri
fri2600:00−1w81397100 0.2 1019328
03:00+2w71397100 0.7 1019337
06:00+2wnw61298100 0.4 1018292
09:00+2wnw51099100 0.8 1018274
12:00+3w611100100 0.1 1017284
15:00+3w71398100 0.1 1016404
18:00+3w81497100 0.0 1014501
21:00+3w71496100 0.1 1013418
27 february, sat
sat2700:00+2w71496100 0.1 1011417
03:00+2w61295100 0.1 1011446
06:00+1w51194100 0.0 1009457
09:00+1w61195100 0.1 1008507
12:00+2w61093100 0.0 1007696
15:00+2w6108899 0.3 1007788
18:000w5109691 0.1 1006448
21:000w6109695 0.1 1007519
28 february, sun
sun2800:000w61097100 0.1 1006560
03:000wnw61193100 0.4 1007600
06:00−5nnw797996 0.2 1009754
09:00−7nnw697798 0.2 1012654
12:00−7nnw6974100 0.0 1014659
15:00−6nnw6874100 0.1 1015681
18:00−8nnw6978100 0.0 1017660
21:00−9nnw5879100 0.1 1019635
1 march, mon
mon100:00−10nnw5782100 0.0 1021572
03:00−10nnw4783100 0.1 1023545
06:00−10nnw4785100 0.0 1024521
09:00−10nnw4679100 0.0 1026530
12:00−7nnw467091 0.0 1027617
15:00−6nnw566861 0.0 1028625
18:00−7nnw47782 0.0 1028524
21:00−8nnw37841 0.0 1030379